IU5GBO-13 Weather Reports


time (UTC)temp
C
wind
direction
speed
KPH
gust
KPH
rain 1hr
cm
rain 24hr
cm
rain mn
cm
humidity
%
barometer
mb
20260503181616 17 0.0 0.0 0.00 0.00 0.00 62 1019.9
20260503180617 17 0.0 0.0 0.00 0.00 0.00 61 1019.9
20260503175617 18 0.0 0.0 0.00 0.00 0.00 59 1019.6
20260503174616 18 0.0 0.0 0.00 0.00 0.00 57 1019.6
20260503173616 18 0.0 0.0 0.00 0.00 0.00 55 1019.6
20260503172616 19 0.0 0.0 0.00 0.00 0.00 56 1019.6
20260503171616 19 0.0 0.0 0.00 0.00 0.00 55 1019.6
20260503170617 20 0.0 0.0 0.00 0.00 0.00 53 1019.6
20260503150617 22 0.0 0.0 0.00 0.00 0.00 38 1019.8
20260503130616 23 0.0 0.0 0.00 0.00 0.00 41 1021.2
20260503110616 21 0.0 0.0 0.00 0.00 0.00 48 1021.9
20260503081616 22 0.0 0.0 0.00 0.00 0.00 41 1021.7
20260503080616 21 0.0 0.0 0.00 0.00 0.00 46 1021.8
20260503072616 19 0.0 0.0 0.00 0.00 0.00 55 1021.9
20260503071616 18 0.0 0.0 0.00 0.00 0.00 56 1022.0
20260503070616 17 0.0 0.0 0.00 0.00 0.00 61 1022.0
20260503054616 11 0.0 0.0 0.00 0.00 0.00 69 1022.4
20260503053616 10 0.0 0.0 0.00 0.00 0.00 71 1022.4
20260503052616 10 0.0 0.0 0.00 0.00 0.00 73 1022.4
20260503051616 9 0.0 0.0 0.00 0.00 0.00 74 1022.3
20260503050616 9 0.0 0.0 0.00 0.00 0.00 73 1022.3
20260503045616 9 0.0 0.0 0.00 0.00 0.00 74 1022.2
20260503044618 8 0.0 0.0 0.00 0.00 0.00 75 1022.2
20260503043616 8 0.0 0.0 0.00 0.00 0.00 76 1022.1
20260503042616 8 0.0 0.0 0.00 0.00 0.00 75 1022.2
20260503041616 8 0.0 0.0 0.00 0.00 0.00 75 1022.1
20260503040616 8 0.0 0.0 0.00 0.00 0.00 75 1021.9
20260503035616 8 0.0 0.0 0.00 0.00 0.00 75 1022.0
20260503034616 8 0.0 0.0 0.00 0.00 0.00 74 1021.9
20260503033616 8 0.0 0.0 0.00 0.00 0.00 74 1021.9
20260503032616 8 0.0 0.0 0.00 0.00 0.00 74 1021.9
20260503031616 8 0.0 0.0 0.00 0.00 0.00 72 1021.8
20260503030616 8 0.0 0.0 0.00 0.00 0.00 73 1021.9
20260503025615 8 0.0 0.0 0.00 0.00 0.00 72 1021.9
20260503024616 9 0.0 0.0 0.00 0.00 0.00 70 1022.0
20260503023616 9 0.0 0.0 0.00 0.00 0.00 69 1021.8
20260503022616 10 0.0 0.0 0.00 0.00 0.00 69 1021.9
20260503021616 10 0.0 0.0 0.00 0.00 0.00 69 1021.9
20260503020616 10 0.0 0.0 0.00 0.00 0.00 69 1021.9
20260503015616 10 0.0 0.0 0.00 0.00 0.00 69 1021.9
20260503014615 10 0.0 0.0 0.00 0.00 0.00 68 1022.1
20260503013616 10 0.0 0.0 0.00 0.00 0.00 68 1022.1
20260503012616 10 0.0 0.0 0.00 0.00 0.00 69 1022.1
20260503011615 10 0.0 0.0 0.00 0.00 0.00 68 1022.3
20260503010615 10 0.0 0.0 0.00 0.00 0.00 68 1022.2
20260503005615 11 0.0 0.0 0.00 0.00 0.00 68 1022.2
20260503004616 11 0.0 0.0 0.00 0.00 0.00 67 1022.2
20260503003615 11 0.0 0.0 0.00 0.00 0.00 69 1022.4
20260503002616 11 0.0 0.0 0.00 0.00 0.00 66 1022.5
20260503001615 11 0.0 0.0 0.00 0.00 0.00 67 1022.6
20260503000616 11 0.0 0.0 0.00 0.00 0.00 65 1022.6
20260502235616 12 0.0 0.0 0.00 0.00 0.00 64 1022.7
20260502234616 12 0.0 0.0 0.00 0.00 0.00 65 1022.8
20260502233615 11 0.0 0.0 0.00 0.00 0.00 65 1022.7
20260502232615 11 0.0 0.0 0.00 0.00 0.00 65 1022.7
20260502231615 11 0.0 0.0 0.00 0.00 0.00 64 1022.7
20260502230616 12 0.0 0.0 0.00 0.00 0.00 63 1022.9
20260502225616 12 0.0 0.0 0.00 0.00 0.00 62 1023.0
20260502224616 12 0.0 0.0 0.00 0.00 0.00 60 1023.0
20260502223616 12 0.0 0.0 0.00 0.00 0.00 58 1023.1
20260502222615 12 0.0 0.0 0.00 0.00 0.00 55 1023.1
20260502221615 13 0.0 0.0 0.00 0.00 0.00 53 1023.1
20260502220616 13 0.0 0.0 0.00 0.00 0.00 54 1023.0
20260502215616 13 0.0 0.0 0.00 0.00 0.00 53 1023.0
20260502214615 13 0.0 0.0 0.00 0.00 0.00 56 1022.9
20260502213615 13 0.0 0.0 0.00 0.00 0.00 55 1022.9
20260502212616 13 0.0 0.0 0.00 0.00 0.00 55 1022.8
20260502211616 14 0.0 0.0 0.00 0.00 0.00 54 1022.8
20260502210615 14 0.0 0.0 0.00 0.00 0.00 53 1022.8
20260502205616 14 0.0 0.0 0.00 0.00 0.00 53 1022.6
20260502204616 15 0.0 0.0 0.00 0.00 0.00 51 1022.7
20260502203615 15 0.0 0.0 0.00 0.00 0.00 50 1022.7
20260502202616 15 0.0 0.0 0.00 0.00 0.00 50 1022.9
20260502201616 15 0.0 0.0 0.00 0.00 0.00 49 1022.8
20260502200615 15 0.0 0.0 0.00 0.00 0.00 48 1022.8
20260502195615 15 0.0 0.0 0.00 0.00 0.00 47 1022.8
20260502194616 16 0.0 0.0 0.00 0.00 0.00 48 1022.7
20260502193616 16 0.0 0.0 0.00 0.00 0.00 49 1022.7
20260502192615 16 0.0 0.0 0.00 0.00 0.00 49 1022.8
20260502191616 16 0.0 0.0 0.00 0.00 0.00 51 1022.6
20260502190615 16 0.0 0.0 0.00 0.00 0.00 51 1022.6
20260502185615 17 0.0 0.0 0.00 0.00 0.00 49 1022.5
20260502184615 17 0.0 0.0 0.00 0.00 0.00 54 1022.5
20260502183615 17 0.0 0.0 0.00 0.00 0.00 51 1022.4
20260502182616 17 0.0 0.0 0.00 0.00 0.00 50 1022.2